www.pogodaiklimat.ru

Погода и климат >> Архив погоды >> Россия >> Волгоградская область >> Волгоград город


ПОГОДА в Волгограде город

  • Прогноз погоды в Волгограде город
  • Монитор погоды в Волгограде город

АРХИВ ПОГОДЫ в Волгограде город

Время (UTC), дата Ветер
(напр.,м/с)
 
Видим.   Явления Облачность Т
(С)
Тd
(С)
f
(%)
Тe
(С)
Тes
(С)
Комфортность P
(гПа)
Po
(гПа)
Тmin
(С)
Tmax
(С)
R
(мм)
R24
(мм)
S
(см)
12 13.05 З 1 4000 м гроза, ливневой дождь 10/8 1000 м
[Cb calv Ac cuf]
+17.3 +13.7 79 +18 +19 1013.7 1000.1
15 13.05 СЗ 2 10 км {гроза, ливн. осадки} 10/6 1000 м
[Cb cap Ac As]
+16.8 +13.6 81 +17 +17 1013.0 999.4 +24.8 7
18 13.05 СЗ 5 10 км {гроза, ливн. осадки} 9/3 1000 м
[Cb cap Ac cuf Ci fib]
+17.8 +14.5 81 +17 +17 1011.7 998.2
21 13.05 СВ 1 10 км 9/0
[Ac lent Ci]
+17.6 +13.4 76 +19 +19 1011.9 998.4
00 14.05 ЮЗ 1 4000 м дымка 10/6 200 м
[Cb cap Ci]
+16.0 +14.3 90 +17 +17 1010.6 997.0
03 14.05 ЮЗ 2 10 км в посл. час ливневой дождь 9/6 200 м
[Cb cap Ac cuf Ci fib]
+16.0 +14.1 88 +16 +16 1010.9 997.3 +15.8 0.3
06 14.05 ЮЗ 1 10 км {ливн. осадки} 10/8 300 м
[Sc diur, vesp Ac As]
+18.0 +14.8 82 +19 +20 1011.0 997.5
09 14.05 ЮЗ 3 10 км 10/10 1000 м
[Sc diur, vesp]
+21.4 +13.1 59 +24 +24 комфорт 1010.7 997.3
12 14.05 ЮЗ 2 10 км 6/6 1000 м
[Cu med, cong]
+23.3 +13.4 54 +27 +31 душно 1010.7 997.5
15 14.05 ЮЗ 3 10 км 4/0
[Ci fib]
+22.1 +13.3 57 +25 +26 комфорт 1010.1 996.7 +23.5 0.0
18 14.05 ЮЗ 2 10 км ясно +18.3 +13.5 74 +19 +19 1011.5 998.0
21 14.05 ЮЗ 2 10 км ясно +17.0 +14.3 84 +17 +17 1011.0 997.4
00 15.05 СЗ 3 4000 м дымка 10/10 200 м
[St]
+15.6 +14.1 91 +15 +15 1011.0 997.4
03 15.05 СЗ 2 4000 м дымка 10/0
[Ci fib]
+16.1 +14.3 89 +16 +17 1011.5 997.9 +14.6
06 15.05 С 1 10 км 3/0
[Ci fib]
+22.3 +14.5 61 +26 +37 жарко 1012.1 998.8
09 15.05 С 2 10 км 1/0
[Ci fib]
+26.1 +12.4 43 +28 +44 жарко 1012.2 999.0
12 15.05 С 1 10 км 4/4 1500 м
[Cu med, cong]
+27.8 +11.5 36 +29 +36 жарко 1011.6 998.5
15 15.05 С 1 10 км 9/3 1500 м
[Cu med, cong Ac As]
+26.6 +11.7 39 +28 +28 жарко 1012.1 999.0 +28.3
18 15.05 СЗ 2 10 км 3/0
[Ac cast]
+22.5 +12.4 53 +25 +25 комфорт 1013.5 1000.1
21 15.05 С 2 10 км ясно +21.0 +11.6 55 +24 +24 комфорт 1013.7 1000.3
00 16.05 СЗ 2 10 км ясно +18.7 +11.7 64 +20 +20 1013.8 1000.2
03 16.05 СЗ 2 10 км ясно +18.7 +12.1 65 +20 +21 1014.0 1000.5 +17.2
06 16.05 С 2 10 км ясно +25.0 +14.1 51 +27 +38 жарко 1014.3 1001.0
09 16.05 В 1 10 км 3/3 1500 м
[Cu med, cong]
+29.3 +11.8 34 +30 +44 жарко 1014.2 1001.1
12 16.05 В 2 10 км 8/3 1500 м
[Cu med, cong Ci fib]
+29.4 +9.4 29 +29 +36 жарко 1013.9 1000.8
15 16.05 ЮВ 1 10 км 8/1 1500 м
[Sc diur, vesp Ci fib]
+28.9 +10.3 31 +29 +30 жарко 1013.3 1000.2 +29.9
18 16.05 СЗ 1 10 км 6/1 1000 м
[Sc diur, vesp Ac cast]
+23.8 +12.9 50 +26 +26 жарко 1014.1 1000.8
21 16.05 С 1 10 км 3/0
[Ci fib]
+22.1 +12.7 55 +25 +25 комфорт 1014.6 1001.2
00 17.05 СВ 2 10 км 5/5 1000 м
[Sc diur, vesp]
+21.1 +12.0 56 +23 +23 комфорт 1014.5 1001.1
03 17.05 СВ 2 10 км 9/3 1000 м
[Sc diur, vesp Ac cast Cc]
+20.0 +12.7 63 +22 +23 комфорт 1014.8 1001.4 +19.3
06 17.05 СВ 3 10 км 3/1 600 м
[Cu med, cong Ci fib]
+21.6 +13.9 62 +24 +32 комфорт 1015.4 1002.0
09 17.05 СВ 3 10 км ясно +23.9 +14.2 55 +26 +33 жарко 1015.5 1002.2
12 17.05 СВ 5 10 км 3/0
[Ci fib]
+24.1 +13.4 51 +26 +32 жарко 1015.2 1001.9
15 17.05 СВ 3
{10}
10 км 3/0
[Ci fib]
+22.8 +10.2 45 +25 +26 комфорт 1015.2 1001.8 +25.1
18 17.05 СВ 3 10 км ясно +19.6 +6.2 42 +21 +21 комфорт 1015.8 1002.3
21 17.05 В 3 10 км ясно +16.0 +4.1 45 +16 +16 1016.2 1002.5
00 18.05 В 1 10 км 6/0
[Ci fib]
+13.9 +5.0 55 +14 +14 1016.7 1002.9
03 18.05 В 1 10 км 8/0
[Ci]
+13.7 +4.9 55 +14 +16 1016.8 1002.9 +13.0
06 18.05 В 1 10 км ясно +18.3 +4.7 41 +20 +32 1016.6 1002.9
09 18.05 В 3 10 км 1/0
[Ci fib]
+20.8 +2.0 29 +21 +36 комфорт 1015.7 1002.2
12 18.05 СВ 2 10 км ясно +21.8 +1.9 27 +22 +33 комфорт 1014.1 1000.7
15 18.05 ЮВ 1 10 км ясно +21.1 +1.6 27 +21 +23 комфорт 1013.1 999.7 +22.2
18 18.05 Ю 1 10 км ясно +16.0 +4.1 45 +17 +17 1013.1 999.4
21 18.05 З 1 10 км ясно +14.6 +3.6 48 +15 +15 1013.0 999.2
00 19.05 СЗ 2 10 км ясно +16.0 +2.8 41 +16 +16 1012.1 998.4
03 19.05 СЗ 1 10 км ясно +17.5 +3.7 40 +19 +20 1012.4 998.8 +14.3
06 19.05 В 2 10 км ясно +21.5 +3.9 31 +22 +32 комфорт 1012.6 999.2
09 19.05 С 2 10 км ясно +23.5 +0.4 22 +23 +40 комфорт 1012.0 998.7
12 19.05 С 3 10 км ясно +24.9 +2.4 23 +24 +33 комфорт 1011.4 998.1
15 19.05 С 3
{12}
10 км ясно +24.0 +1.7 23 +23 +24 комфорт 1011.4 998.1 +25.5
18 19.05 С 1 10 км ясно +17.7 +1.6 34 +19 +19 1013.5 999.9
21 19.05 СЗ 2 10 км ясно +17.5 -0.4 30 +18 +18 1013.6 999.9
00 20.05 СВ 3 10 км ясно +13.9 +1.0 41 +13 +13 1015.4 1001.6
03 20.05 В 2 10 км ясно +12.6 +1.1 45 +12 +14 1017.9 1004.0 +11.4
06 20.05 В 2 10 км ясно +16.4 +0.7 34 +17 +28 1018.6 1004.9
09 20.05 В 3 10 км ясно +18.2 -1.9 25 +18 +33 опасность
простуды
1019.2 1005.6

 

Местоположение метеостанции Волгоград город (Волгоградская область, Россия): широта 48.67 долгота 44.45 высота над уровнем моря 116 м.

В архиве по умолчанию представлена погода в Волгограде город за последнюю неделю. Архивные данные за месяц целиком и за предыдущие месяцы, начиная с января 2011 года, Вы можете получить, выбрав интересующий диапазон дат из раскрывающегося списка и нажав кнопку "Ввод!".


*Определитесь, кто Вы:
робот инопланетянин человек

Внимание! Время в таблицах - всемирное. Для получения местного времени необходимо прибавить поправку, которая равна 3 ч.

Смотрите также архив погоды в соседних городах и на ближайших метеорологических станциях:

Погода в Волгограде (Волгоградская область, Россия) (14 км)
Погода в Калаче-на-Дону (Волгоградская область, Россия) (71 км)
Погода в Иловле (Волгоградская область, Россия) (77 км)
Погода в Малых Дербетах (Калмыкия, Россия) (84 км)
Погода в Нижнем Чире (Волгоградская область, Россия) (105 км)
Погода в Ольховке (Волгоградская область, Россия) (134 км)
Погода в Фролове (Волгоградская область, Россия) (138 км)
Погода в Черный Яр (Астраханская область, Россия) (140 км)
Погода в Кетченерах (Калмыкия, Россия) (150 км)
Погода в Котельниково (Волгоградская область, Россия) (151 км)

Пояснения к столбцам:

Ветер - указаны скорость ветра в м/с - средняя за 10 мин, порывы в срок и между сроками (в фигурных скобках) и направление, откуда дует ветер: С - северный, СВ - северо-восточный, В - восточный, ЮВ - юго-восточный, Ю - южный, ЮЗ - юго-западный, З - западный, СЗ - северо-западный.
Видимость - горизонтальная дальность видимости в метрах или километрах. При видимости от 1 до 10 км при отсутствии осадков обычно наблюдается дымка, при ухудшении видимости до 1 км и менее - туман. В сухую погоду видимость может ухудшаться дымом, пылью или мглою.
Явления - указаны атмосферные явления, наблюдавшиеся в срок или в последний час перед сроком; фигурными скобками обозначены явления, наблюдавшиеся между сроками (за 1-3 часа до срока); квадратными скобками обозначены град или гололедные отложения с указанием их диаметра в мм.
Облачность - указаны через наклонную черту общая и нижняя облачность в баллах и высота нижней границы облаков в метрах; квадратными скобками обозначены формы облаков: Ci - перистые, Cs - перисто-слоистые, Cc - перисто-кучевые, Ac - высококучевые, As - высокослоистые, Sc - слоисто-кучевые, Ns - слоисто-дождевые, Cu - кучевые, Cb - кучево-дождевые. Подробнее классификацию облаков см. в Атласе облаков (PDF).
T - Температура воздуха - температура, измеренная на высоте 2 м над землей.
Td - Температура точки росы - температура, при понижении до которой содержащийся в воздухе водяной пар достигнет насыщения.
f - Относительная влажность воздуха - влажноcть воздуха, измеренная на высоте 2 м над землей.
Te - Эффективная температура - температура, которую ощущает одетый по сезону человек в тени. Характеристика душности погоды. При расчете учитывается влияние влажности воздуха и скорости ветра на теплоощущения человека.
Tes - Эффективная температура на солнце - температура, которую ощущает человек, с поправкой на солнечный нагрев. Характеристика знойности погоды. Зависит от высоты солнца над горизонтом, облачности и скорости ветра. Ночью, в пасмурную погоду, а также при ветре 12 м/с и более поправка равна нулю.
P - Атмосферное давление - приведенное к уровню моря атмосферное давление.
Po - Атмосферное давление - измеренное на уровне метеостанции атмосферное давление.
Tmin - Минимальная температура - минимум температуры воздуха на высоте 2 м над землей.
Tmax - Максимальная температура - максимум температуры воздуха на высоте 2 м над землей.
R - Количество осадков - Количество выпавших осадков за период времени, мм. При наведении курсора мыши на число - период времени, за который выпало указанное количество осадков.
R24 - Количество осадков - Количество выпавших осадков за 24 часа, мм.
S - Снежный покров - Высота снежного покрова, см. При наведении курсора мыши на число - состояние снежного покрова и степень покрытия местности в баллах.